CAPE
1 0 0 0 0 0 0 0 0 1 0 0 0 0 0 0 0 0 0 0 0 0 0 0 0 0 0 0 0 0 0 0 0 0 0 0 0 0 0 29 11 148 229 85 107 178 245
0 0 0 0 0 0 0 0 0 0 0 0 0 0 0 0 0 0 0 0 0 0 0 0 0 0 0 0 0 0 0 0 0 0 0 0 0 0 0 36 34 184 42 5 47 27 100
0 0 0 0 0 0 0 0 0 0 0 0 0 0 0 0 0 0 0 0 0 0 0 0 0 0 0 0 0 0 0 0 0 0 0 0 0 0 0 0 134 141 49 107 60 13 247
0 0 0 0 0 0 0 0 0 0 0 0 0 0 0 0 0 0 0 0 0 0 0 0 0 0 0 0 0 0 0 0 0 0 0 0 0 0 0 0 0 0 87 69 65 106 339
0 0 0 0 0 0 0 0 0 0 0 0 0 0 0 0 0 0 0 0 0 0 0 0 0 0 0 0 0 0 0 0 0 0 0 0 0 0 0 0 0 2 3 22 87 196 215
0 0 0 0 0 0 0 0 0 0 0 0 0 0 0 0 0 0 0 0 0 0 0 0 0 0 0 0 0 0 0 0 0 0 0 0 0 0 0 0 0 0 15 12 50 90 17
3 1 0 0 0 0 0 0 0 0 0 0 0 0 0 0 0 0 0 0 0 0 0 0 0 0 0 0 0 0 0 0 0 0 0 0 0 0 0 0 0 0 42 60 22 61 24
0 0 0 0 0 0 0 0 0 0 0 0 0 0 0 0 0 0 0 0 0 0 0 0 0 0 0 0 0 0 0 0 0 0 0 0 0 0 0 0 0 4 21 106 198 108 56
0 0 0 0 0 0 0 0 0 0 0 0 0 0 0 0 0 0 0 0 0 0 0 0 0 0 0 0 0 0 0 0 0 0 0 0 0 0 0 0 0 0 6 81 120 111 52
0 0 0 0 0 0 0 0 0 0 0 0 0 0 0 0 0 0 0 0 0 0 0 0 0 0 0 0 0 0 0 0 0 0 0 0 0 0 0 0 0 0 1 94 104 102 6
0 0 0 0 0 0 0 0 0 0 0 0 0 0 0 0 0 0 0 0 0 0 0 0 0 0 0 0 0 0 0 0 0 0 0 0 0 0 0 0 0 0 6 49 54 8 11
1 1 0 0 0 0 0 0 0 0 0 0 0 0 0 0 0 0 0 0 0 0 0 0 0 0 0 0 0 0 0 0 0 0 0 0 0 0 0 0 0 0 0 21 3 3 0
2 1 1 0 0 0 1 0 0 0 0 0 0 0 0 0 0 0 0 0 0 0 0 0 0 0 0 0 0 0 0 0 0 0 0 0 0 0 0 0 0 0 0 0 0 0 0
2 2 1 0 0 0 0 0 0 0 0 0 0 0 0 0 0 0 0 0 0 0 0 0 0 0 0 0 0 0 0 0 0 0 0 0 0 0 0 0 0 0 0 0 0 0 0
0 0 2 1 0 0 0 0 0 0 0 0 0 0 0 0 0 0 0 0 0 0 0 0 0 0 0 0 0 0 0 0 0 0 0 0 0 0 0 0 0 0 0 0 0 0 1
0 0 0 0 0 0 0 0 0 0 0 0 0 0 0 0 0 0 0 0 0 0 0 0 0 0 0 0 0 0 0 0 0 0 0 0 0 0 0 0 0 0 0 0 0 0 0
0 1 0 0 0 0 0 0 0 0 0 0 0 0 0 0 0 0 0 0 0 0 0 0 0 0 0 0 0 0 0 0 0 0 0 0 0 0 0 0 0 0 0 0 0 0 0
1 1 0 0 0 0 0 0 0 0 0 0 0 0 0 0 0 0 0 0 0 0 0 0 0 0 0 0 0 0 0 0 0 0 0 0 0 0 0 0 0 0 0 0 0 0 0
0 3 1 0 0 0 0 0 0 1 0 0 0 0 0 0 0 0 0 0 0 0 0 0 0 0 0 0 0 0 0 0 0 0 0 0 0 0 0 0 0 0 0 0 0 0 0
0 2 0 0 3 0 0 0 0 1 0 0 0 0 0 0 0 0 0 0 0 0 0 0 0 0 0 0 0 0 0 0 1 4 0 0 0 0 0 0 0 0 0 0 0 0 0
0 0 0 3 9 1 0 0 0 1 0 0 0 0 0 0 0 0 0 22 11 4 0 0 0 0 0 0 0 0 0 1 15 0 0 0 0 0 0 0 0 0 0 0 0 0 0
0 0 0 5 5 3 0 0 0 0 0 0 0 0 0 0 2 26 1 0 16 5 16 25 5 0 0 0 0 0 4 1 46 12 3 0 0 0 0 0 0 0 0 0 0 0 0
0 0 0 2 3 3 0 0 0 0 0 0 0 0 0 0 0 5 11 15 32 3 31 43 36 12 1 0 0 0 0 1 1 8 10 8 0 0 0 0 0 0 4 0 0 13 1
0 0 0 0 1 0 0 0 0 2 0 0 0 0 0 0 0 0 0 0 0 1 81 59 15 0 0 0 0 0 0 0 0 0 0 0 0 0 0 0 0 0 8 142 199 476 261
0 0 0 0 0 1 1 1 0 1 1 0 0 0 0 0 0 0 0 0 0 0 1 25 0 0 0 0 0 0 0 0 0 0 0 0 0 0 0 0 0 0 0 21 151 296 35
0 0 0 0 0 0 1 1 0 0 3 0 0 0 11 2 0 0 0 0 0 0 17 38 23 1 13 0 0 0 0 0 41 53 0 0 0 1 0 0 0 2 0 41 246 550 125
1 0 0 0 1 2 2 1 2 0 1 0 0 0 5 7 0 0 0 0 0 0 0 44 40 109 124 68 2 0 0 4 0 1 6 1 3 40 2 0 0 29 13 217 342 289 79
0 0 0 0 0 1 1 2 1 0 1 0 0 0 2 11 0 0 0 0 0 0 1 18 40 53 104 57 39 190 149 38 0 0 9 10 1 4 0 0 0 18 45 72 48 143 148
0 0 1 0 0 0 0 1 1 1 0 1 0 0 0 1 0 0 0 0 0 0 0 0 0 0 13 0 0 28 341 54 0 13 22 33 24 10 9 1 25 48 0 16 37 108 201
CIN
-1 -1 -0 -0 -0 -0 -0 -0 -0 -0 -0 -0 -0 -0 -0 -0 -0 -0 -0 -0 -0 -0 -0 -0 -0 -0 -0 -0 -0 -0 -0 -0 -0 -0 -0 -0 -0 -0 -0 -90 -26 -53 -42 -62 -44 -31 -25
-0 -0 -0 -0 -0 -0 -0 -0 -0 -0 -0 -0 -0 -0 -0 -0 -0 -0 -0 -0 -0 -0 -0 -0 -0 -0 -0 -0 -0 -0 -0 -0 -0 -0 -0 -0 -0 -0 -0 -52 -56 -60 -46 -81 -65 -55 -43
-0 -0 -0 -0 -0 -0 -0 -0 -0 -0 -0 -0 -0 -0 -0 -0 -0 -0 -0 -0 -0 -0 -0 -0 -0 -0 -0 -0 -0 -0 -0 -0 -0 -0 -0 -0 -0 -0 -0 -0 -67 -84 -64 -77 -38 -59 -40
-0 -0 -0 -0 -0 -0 -0 -0 -0 -0 -0 -0 -0 -0 -0 -0 -0 -0 -0 -0 -0 -0 -0 -0 -0 -0 -0 -0 -0 -0 -0 -0 -0 -0 -0 -0 -0 -0 -0 -0 -40 -13 -81 -24 -30 -41 -55
-0 -0 -0 -0 -0 -0 -0 -0 -0 -0 -0 -0 -0 -0 -0 -0 -0 -0 -0 -0 -0 -0 -0 -0 -0 -0 -0 -0 -0 -0 -0 -0 -0 -0 -0 -0 -0 -0 -0 -0 -0 -36 -29 -77 -30 -49 -56
-0 -0 -0 -0 -0 -0 -0 -0 -0 -0 -0 -0 -0 -0 -0 -0 -0 -0 -0 -0 -0 -0 -0 -0 -0 -0 -0 -0 -0 -0 -0 -0 -0 -0 -0 -0 -0 -0 -0 -0 -0 -0 -20 -24 -22 -39 -29
-6 -5 -0 -0 -0 -0 -0 -0 -0 -0 -0 -0 -0 -0 -0 -0 -0 -0 -0 -0 -0 -0 -0 -0 -0 -0 -0 -0 -0 -0 -0 -0 -0 -0 -0 -0 -0 -0 -0 -0 -0 -0 -40 -24 -7 -39 -73
-0 -0 -0 -0 -0 -0 -0 -0 -0 -0 -0 -0 -0 -0 -0 -0 -0 -0 -0 -0 -0 -0 -0 -0 -0 -0 -0 -0 -0 -0 -0 -0 -0 -0 -0 -0 -0 -0 -0 -0 -0 -34 -29 -46 -103 -140 -83
-0 -0 -0 -0 -0 -0 -0 -0 -0 -0 -0 -0 -0 -0 -0 -0 -0 -0 -0 -0 -0 -0 -0 -0 -0 -0 -0 -0 -0 -0 -0 -0 -0 -0 -0 -0 -0 -0 -0 -0 -0 -0 -19 -44 -81 -203 -246
-0 -0 -0 -0 -0 -0 -0 -0 -0 -0 -0 -0 -0 -0 -0 -0 -0 -0 -0 -0 -0 -0 -0 -0 -0 -0 -0 -0 -0 -0 -0 -0 -0 -0 -0 -0 -0 -0 -0 -0 -0 -0 -16 -25 -57 -68 -57
-0 -0 -0 -0 -0 -0 -0 -0 -0 -0 -0 -0 -0 -0 -0 -0 -0 -0 -0 -0 -0 -0 -0 -0 -0 -0 -0 -0 -0 -0 -0 -0 -0 -0 -0 -0 -0 -0 -0 -0 -0 -0 -40 -22 -73 -76 -134
-0 -0 -0 -0 -0 -0 -0 -0 -0 -0 -0 -0 -0 -0 -0 -0 -0 -0 -0 -0 -0 -0 -0 -0 -0 -0 -0 -0 -0 -0 -0 -0 -0 -0 -0 -0 -0 -0 -0 -0 -0 -0 -8 -101 -48 -90 -0
-3 -2 -1 -0 -0 -0 -0 -0 -0 -0 -0 -0 -0 -0 -0 -0 -0 -0 -0 -0 -0 -0 -0 -0 -0 -0 -0 -0 -0 -0 -0 -0 -0 -0 -0 -0 -0 -0 -0 -0 -0 -0 -0 -0 -0 -0 -0
-10 -7 -2 -0 -0 -0 -0 -0 -0 -0 -0 -0 -0 -0 -0 -0 -0 -0 -0 -0 -0 -0 -0 -0 -0 -0 -0 -0 -0 -0 -0 -0 -0 -0 -0 -0 -0 -0 -0 -0 -0 -0 -0 -0 -0 -0 -0
-0 -0 -8 -4 -0 -0 -0 -0 -0 -0 -0 -0 -0 -0 -0 -0 -0 -0 -0 -0 -0 -0 -0 -0 -0 -0 -0 -0 -0 -0 -0 -0 -0 -0 -0 -0 -0 -0 -0 -0 -0 -0 -0 -0 -0 -0 -54
-0 -0 -0 -6 -0 -0 -0 -0 -0 -0 -0 -0 -0 -0 -0 -0 -0 -0 -0 -0 -0 -0 -0 -0 -0 -0 -0 -0 -0 -0 -0 -0 -0 -0 -0 -0 -0 -0 -0 -0 -0 -0 -0 -0 -0 -0 -0
-0 -0 -0 -0 -0 -0 -0 -0 -0 -0 -0 -0 -0 -0 -0 -0 -0 -0 -0 -0 -0 -0 -0 -0 -0 -0 -0 -0 -0 -0 -0 -0 -0 -0 -0 -0 -0 -0 -0 -0 -0 -0 -0 -0 -0 -0 -0
-0 -0 -0 -0 -0 -0 -0 -0 -0 -0 -0 -0 -0 -0 -0 -0 -0 -0 -0 -0 -0 -0 -0 -0 -0 -0 -0 -0 -0 -0 -0 -0 -0 -0 -0 -0 -0 -0 -0 -0 -0 -0 -0 -0 -0 -0 -0
-0 -1 -0 -0 -0 -0 -0 -0 -0 -0 -0 -0 -0 -0 -0 -0 -0 -0 -0 -0 -0 -0 -0 -0 -0 -0 -0 -0 -0 -0 -0 -0 -11 -0 -0 -0 -0 -0 -0 -0 -0 -0 -0 -0 -0 -0 -0
-0 -1 -0 -0 -9 -0 -0 -0 -0 -0 -0 -0 -0 -0 -0 -0 -0 -0 -0 -0 -0 -0 -0 -0 -0 -0 -0 -0 -0 -0 -0 -0 -54 -87 -0 -0 -0 -0 -0 -0 -0 -0 -0 -0 -0 -0 -0
-0 -0 -0 -6 -6 -8 -0 -0 -0 -5 -0 -0 -0 -0 -0 -0 -0 -0 -0 -163 -84 -88 -0 -0 -0 -0 -0 -0 -0 -0 -0 -28 -115 -0 -0 -0 -0 -0 -0 -0 -0 -0 -0 -0 -0 -0 -0
-0 -0 -0 -15 -8 -6 -0 -0 -0 -6 -0 -0 -0 -0 -0 -0 -46 -204 -49 -0 -156 -62 -100 -45 -25 -0 -0 -0 -0 -0 -165 -34 -109 -109 -94 -0 -0 -0 -0 -0 -0 -0 -0 -0 -0 -0 -0
-0 -0 -0 -10 -4 -4 -1 -0 -0 -8 -0 -0 -0 -0 -0 -0 -0 -167 -142 -204 -148 -149 -125 -73 -70 -62 -12 -0 -0 -0 -0 -124 -151 -133 -95 -72 -11 -0 -0 -0 -0 -0 -102 -0 -0 -71 -71
-0 -0 -0 -0 -6 -5 -1 -0 -0 -1 -0 -0 -0 -0 -0 -0 -0 -0 -0 -0 -0 -237 -118 -65 -102 -0 -22 -0 -0 -0 -0 -0 -0 -0 -0 -0 -0 -0 -0 -0 -0 -0 -175 -360 -245 -234 -445
-0 -0 -0 -0 -0 -1 -0 -0 -0 -0 -0 -0 -0 -0 -0 -0 -0 -0 -0 -0 -0 -0 -144 -145 -0 -0 -0 -0 -0 -0 -0 -0 -0 -0 -0 -0 -0 -0 -0 -0 -0 -0 -0 -404 -356 -219 -517
-0 -0 -0 -0 -0 -0 -0 -0 -0 -0 -0 -0 -0 -7 -3 -0 -0 -0 -0 -0 -0 -0 -176 -211 -218 -20 -148 -0 -0 -0 -0 -0 -52 -58 -0 -0 -0 -52 -0 -0 -0 -24 -0 -358 -315 -119 -391
-0 -0 -0 -0 -0 -0 -0 -0 -0 -0 -1 -0 -0 -0 -10 -1 -0 -0 -0 -0 -0 -0 -0 -242 -300 -170 -146 -60 -5 -0 -0 -16 -0 -32 -110 -40 -105 -96 -47 -0 -0 -233 -375 -247 -107 -151 -373
-1 -0 -0 -0 -0 -0 -0 -0 -0 -0 -1 -0 -0 -0 -11 -1 -0 -0 -0 -0 -0 -0 -69 -215 -161 -155 -146 -87 -74 -51 -40 -103 -0 -0 -124 -90 -77 -92 -0 -0 -0 -369 -310 -196 -266 -306 -377
-0 -0 -0 -0 -0 -0 -0 -0 -0 -0 -0 -0 -0 -0 -0 -6 -0 -0 -0 -0 -0 -0 -0 -0 -5 -0 -122 -0 -0 -75 -29 -117 -6 -74 -189 -102 -124 -104 -109 -45 -200 -323 -45 -406 -368 -248 -305
Wind_Speed
20 20 21 21 21 22 23 23 24 24 25 26 26 27 28 28 29 29 29 29 28 28 27 26 25 24 20 17 10 12 13 12 11 9 13 11 13 17 22 19 14 14 12 12 13 20 18
21 21 22 22 22 23 24 25 25 26 26 27 28 29 29 30 30 30 30 30 29 29 27 26 25 23 18 17 12 12 11 12 11 11 12 10 10 17 12 16 19 12 11 15 15 12 15
21 22 22 23 24 24 25 26 27 27 28 29 29 30 31 31 32 32 32 32 31 29 27 26 24 20 17 6 11 15 19 8 8 11 15 11 8 8 13 13 11 12 13 13 18 17 17
22 22 23 24 25 26 26 27 28 28 29 30 31 31 32 33 33 33 33 33 32 30 28 24 19 18 12 10 24 25 10 14 22 15 15 17 16 10 18 17 10 11 14 21 11 12 14
23 23 24 25 25 26 27 28 29 29 30 31 32 33 33 33 34 34 34 33 32 27 20 18 19 18 22 23 7 15 10 18 23 24 19 16 11 20 19 17 18 16 23 21 12 13 15
24 25 25 26 26 27 28 29 30 30 31 32 33 34 34 34 34 35 34 31 24 21 17 18 21 23 18 17 15 8 9 12 7 23 23 11 20 21 21 18 14 14 16 20 9 19 16
26 26 27 27 28 29 29 30 30 31 32 33 33 34 35 35 34 35 29 21 23 21 21 30 27 27 27 21 23 20 13 11 6 13 20 22 16 19 18 14 15 11 22 13 20 15 14
26 27 28 28 29 30 30 31 31 32 33 33 34 35 35 35 36 31 19 22 24 26 33 31 31 17 31 22 23 23 7 8 8 16 19 20 21 19 19 21 23 17 10 11 21 17 15
26 27 28 29 29 30 31 31 32 33 33 34 34 34 35 36 33 18 25 23 28 29 28 31 19 17 16 10 14 23 11 6 5 16 20 18 22 16 16 20 16 23 11 13 15 19 21
25 27 27 28 29 30 31 32 32 33 34 34 34 34 34 36 19 26 23 27 30 26 25 24 18 17 11 14 23 17 5 7 9 3 21 14 23 16 15 15 6 23 7 12 10 15 21
25 26 27 28 29 30 30 31 32 33 34 34 34 34 33 30 28 24 24 29 29 18 23 16 14 12 7 8 14 17 8 11 9 7 10 6 27 25 23 17 12 23 13 13 10 15 16
25 26 27 28 29 30 30 31 32 33 34 35 35 34 34 24 25 25 28 30 19 18 21 17 12 11 10 10 17 18 10 14 15 19 23 31 31 28 27 26 22 19 12 15 17 18 23
21 23 25 27 28 29 30 31 32 33 34 35 35 35 33 25 21 20 26 19 17 18 18 19 16 15 13 15 15 17 21 21 14 19 25 31 35 33 28 29 28 17 14 23 24 24 26
23 24 25 26 27 28 29 30 32 34 34 35 35 35 27 20 21 20 18 16 18 16 17 21 27 17 13 13 16 18 19 22 21 19 21 23 26 21 19 16 19 17 12 12 25 26 24
23 25 26 27 28 28 29 30 31 32 33 34 34 27 24 20 8 12 14 19 18 15 17 24 22 13 17 18 20 22 19 20 20 16 18 18 21 17 24 29 22 29 12 12 13 16 17
19 23 25 27 28 29 30 31 32 32 32 32 28 26 21 10 5 9 16 22 20 19 24 23 21 21 23 23 20 22 22 21 24 19 17 23 29 28 25 24 24 2 11 15 18 18 22
9 15 23 27 28 28 29 30 31 32 31 29 21 20 17 7 7 14 20 22 25 30 27 21 31 26 25 23 23 24 20 27 21 24 19 22 26 37 25 23 25 17 17 16 15 15 18
1 2 5 16 23 29 30 31 30 31 31 23 18 11 12 5 13 16 20 20 20 26 27 28 27 24 23 25 25 26 24 22 22 29 27 21 23 31 32 27 19 21 25 16 18 18 16
8 2 8 1 1 11 30 30 30 29 28 22 19 11 11 4 14 17 22 28 30 32 32 26 29 25 24 25 25 25 25 23 24 23 20 18 22 26 31 29 21 22 22 15 16 17 21
31 23 21 17 12 20 28 29 29 28 27 21 15 12 13 13 15 20 25 27 24 26 30 33 28 27 28 30 25 26 25 21 23 22 20 14 18 21 25 25 23 26 29 26 22 24 24
29 25 21 20 20 24 28 28 28 26 25 17 12 11 15 14 16 24 24 23 25 25 25 25 20 22 27 29 29 28 25 24 21 22 22 20 23 25 27 29 28 29 31 29 27 28 26
26 24 22 23 25 26 28 28 28 26 26 14 13 13 16 14 16 21 21 21 23 26 22 19 19 25 26 24 26 27 25 22 21 26 23 22 23 26 33 32 32 33 34 31 29 28 26
26 25 27 28 27 24 28 28 27 25 21 14 13 14 12 10 18 18 18 25 27 27 22 21 23 20 17 19 22 23 25 27 25 25 25 22 22 25 28 26 28 33 26 26 28 22 24
28 27 26 26 27 26 26 26 26 24 19 13 12 13 14 7 17 20 27 27 27 27 25 26 23 22 24 23 25 24 24 26 27 28 23 26 24 22 26 25 31 19 24 22 21 22 25
27 27 26 25 26 24 22 24 24 23 18 14 12 14 14 13 21 28 28 29 29 27 24 20 23 26 28 24 25 25 26 27 24 20 25 24 23 26 25 29 28 27 28 30 26 24 25
26 27 25 25 25 22 22 22 22 22 19 15 10 12 14 17 15 22 31 27 27 29 27 26 28 27 23 21 22 25 25 25 24 24 21 19 18 22 23 27 30 22 28 30 14 18 23
25 25 25 24 23 23 22 22 21 21 21 15 10 13 14 14 18 20 23 26 26 26 29 28 28 26 24 25 26 26 25 23 23 22 24 23 22 21 22 25 26 24 27 18 19 21 25
23 24 24 24 24 22 22 21 20 19 20 16 8 10 10 10 6 10 22 33 30 27 27 27 26 23 23 19 20 20 20 19 19 19 20 21 22 23 23 27 32 24 23 17 20 26 25
21 21 23 24 23 22 20 20 18 18 19 15 12 14 20 7 3 32 34 39 42 40 34 26 25 26 20 18 20 19 19 18 19 21 19 22 20 21 20 25 24 23 18 22 22 25 26
Wind_Direction
330 330 329 328 329 328 326 325 323 322 319 316 313 311 309 307 302 298 295 292 290 288 287 285 286 288 322 333 37 151 55 78 103 92 127 78 63 36 34 72 90 100 99 114 122 34 94
325 327 326 326 325 324 323 322 321 320 318 315 313 311 308 305 302 298 295 291 288 285 284 285 290 295 333 326 330 347 34 51 111 119 124 85 70 35 121 90 61 139 130 103 119 193 119
323 323 323 324 323 321 320 320 319 318 316 315 313 311 308 305 302 298 296 291 286 282 279 283 289 328 331 118 346 298 292 85 64 125 155 145 121 91 47 47 117 106 98 108 87 34 31
321 320 320 320 320 319 318 317 317 317 316 315 313 310 308 306 303 299 295 290 285 277 279 294 323 330 315 306 244 242 342 305 210 165 168 204 208 195 340 51 222 134 318 3 157 51 67
317 318 318 317 317 317 316 316 314 314 313 313 312 311 308 306 304 301 296 288 280 278 309 322 313 320 233 265 328 161 140 184 247 227 189 193 202 249 280 321 282 301 4 326 256 332 107
311 311 312 314 314 314 313 314 313 312 311 311 311 310 308 305 303 302 296 288 304 305 314 317 295 282 277 299 328 43 118 144 346 239 253 259 255 230 248 257 216 345 2 14 121 347 329
307 307 308 308 309 309 310 310 311 311 310 310 310 310 307 305 302 302 304 313 308 300 308 269 261 255 248 286 282 265 140 115 63 310 179 208 178 178 189 190 222 180 312 46 21 34 324
307 309 309 308 308 307 307 308 308 309 309 309 309 309 308 304 300 300 325 311 307 306 281 286 234 212 226 295 286 260 10 86 98 160 177 194 192 189 202 227 259 309 148 153 11 57 49
307 309 307 305 305 306 306 306 307 307 307 307 308 308 309 305 297 322 304 309 308 308 292 288 299 292 278 313 307 253 308 342 13 168 180 178 188 205 207 224 217 276 167 6 31 48 24
305 308 309 308 306 306 305 304 305 305 306 306 306 307 310 309 317 304 300 304 303 318 292 294 303 303 286 293 292 293 290 313 311 335 185 179 206 192 200 207 168 259 70 10 66 19 11
306 308 310 310 309 307 305 304 303 304 303 303 303 304 308 312 300 300 300 299 300 322 285 309 322 339 325 280 308 320 269 291 295 301 306 307 227 234 234 210 308 258 30 28 64 22 28
299 304 306 308 309 309 308 306 304 302 301 300 299 299 303 316 307 292 291 293 312 299 285 299 318 322 318 290 285 303 297 282 294 284 280 262 266 284 237 242 238 306 4 352 346 343 305
277 283 290 299 303 306 308 308 305 303 299 297 294 291 294 308 303 307 300 305 291 284 301 300 308 298 308 303 284 285 283 277 275 283 279 274 264 265 273 272 259 317 333 313 300 302 294
286 286 288 294 298 300 300 303 303 303 301 296 292 287 306 311 299 299 308 293 278 287 293 306 301 284 296 303 296 280 283 278 272 281 286 289 283 283 285 300 303 315 328 330 297 301 318
289 293 296 296 299 301 304 305 304 302 300 298 294 312 311 312 335 304 302 276 275 285 301 304 306 286 285 306 296 289 278 276 277 273 281 286 283 295 282 282 307 282 312 315 335 347 344
275 283 290 296 297 300 304 306 308 307 302 299 303 310 313 333 35 318 293 278 275 276 291 298 293 296 292 295 303 310 275 281 276 272 270 279 278 276 284 299 307 273 333 308 311 320 316
259 267 280 291 296 299 302 305 307 309 306 300 334 321 331 74 8 309 288 282 278 266 282 292 278 285 290 292 297 300 299 275 282 274 270 273 275 256 289 291 296 289 296 311 311 317 318
16 305 256 261 280 302 311 313 313 316 314 337 351 24 353 32 329 309 294 288 284 269 277 283 285 285 287 288 287 289 290 294 305 284 269 270 277 270 269 285 299 300 296 289 305 301 314
272 339 35 95 102 28 326 318 321 328 340 350 339 13 331 359 327 314 296 278 277 264 269 283 283 287 290 288 285 284 285 297 312 310 288 267 273 273 274 277 293 296 303 298 308 302 297
341 17 18 32 43 20 348 331 329 335 341 358 0 5 353 324 313 311 296 283 280 278 279 280 277 286 276 275 285 280 284 295 313 318 298 294 277 278 274 277 287 288 290 293 296 290 290
5 20 28 26 22 10 350 341 344 346 347 11 16 14 352 344 315 297 292 287 282 286 293 291 283 286 274 270 273 276 286 292 305 314 310 295 278 278 278 275 282 285 287 291 296 299 287
13 17 25 17 3 358 350 340 343 341 345 29 13 8 345 345 333 302 290 285 288 291 293 294 305 292 281 273 277 273 280 291 292 299 306 307 290 287 278 280 279 277 279 287 297 304 306
12 13 6 358 2 6 347 344 344 347 5 23 10 355 352 353 323 307 295 284 283 288 283 299 294 300 300 294 290 283 278 275 286 294 295 302 302 295 285 290 279 271 294 296 300 320 309
0 3 9 8 4 4 1 355 347 352 11 28 20 2 341 329 313 303 284 285 288 289 280 286 298 294 293 303 293 289 289 282 281 287 296 292 297 297 292 292 268 280 307 304 299 323 318
359 358 2 9 6 10 17 6 360 354 8 23 17 357 342 320 305 286 285 282 278 285 288 295 295 292 291 298 288 287 284 281 288 303 294 290 294 290 288 284 281 288 295 290 293 296 318
353 356 3 5 9 14 15 10 5 359 2 16 27 6 342 323 309 299 283 288 284 279 278 283 293 298 304 300 292 282 279 283 278 281 305 308 298 286 291 285 281 289 293 294 284 287 309
353 354 358 3 7 10 11 9 8 4 359 12 26 3 350 329 313 305 290 283 285 285 278 281 289 291 311 291 281 281 279 287 281 289 286 291 290 287 288 285 283 291 295 312 278 277 288
356 353 353 358 2 8 8 10 11 10 3 14 33 19 5 345 286 251 246 273 280 281 278 282 284 283 295 301 288 289 291 295 291 291 292 288 287 287 291 287 280 297 295 300 291 279 286
359 357 351 351 359 4 9 8 13 13 6 17 21 11 350 1 230 256 245 238 252 251 264 276 275 279 285 295 293 296 293 295 297 289 298 293 296 291 292 290 296 303 299 271 286 285 290